INTELSAT 16 (IS-16)

Last updated on Thu Mar 05 2026 00:02:56 GMT+0000 (Coordinated Universal Time)

1 36397U 10006A 26063.29489050 .00000000 00000+0 00000+0 0 9997 2 36397 0.0246 131.0947 0002048 226.9808 193.9417 1.00268007 58603
UTC large
Height (km)
Speed (km/s)
/
Latitude / Longitude
Inclination (degrees)
Orbital Period (minutes)
Azimuth
Elevation
Range (km)
Doppler Factor

Next 0 passes for location: London (51.5072 / 0.1276)

Sorry there are no passes over London.